AUA154 LOWW-EDDM

Flight info

Callsign AUA154
Flight time 0h 37m
Altitude 30000
Route SOVIL2B/16 SOVIL DCT SITNI DCT BAGSI DCT MATIG DCT AMADI Q113 NAPSA NAPSA4A
Aircraft A320/M-SDE3FGHIRWY/LB1

Departure

Time 2026-05-04 17:42
Airport Vienna International Airport (LOWW)

Arrival

Time 2026-05-04 18:19
Airport Munich Airport (EDDM)
Time Latitude Longitude Altitude Speed Heading
2026-05-04 17:29 48.11435 16.57136 609 ft 0 kts 205°
2026-05-04 17:38 48.11423 16.57127 609 ft 6 kts 205°
2026-05-04 17:38 48.11363 16.57112 609 ft 11 kts 150°
2026-05-04 17:38 48.11320 16.57216 609 ft 13 kts 115°
2026-05-04 17:38 48.11326 16.57339 612 ft 14 kts 36°
2026-05-04 17:39 48.11489 16.57456 609 ft 12 kts 18°
2026-05-04 17:39 48.11566 16.57449 612 ft 11 kts 343°
2026-05-04 17:39 48.11657 16.57409 617 ft 16 kts 345°
2026-05-04 17:40 48.11764 16.57364 623 ft 15 kts 345°
2026-05-04 17:40 48.11862 16.57323 623 ft 14 kts 344°
2026-05-04 17:40 48.11954 16.57293 609 ft 13 kts
2026-05-04 17:40 48.12000 16.57390 609 ft 12 kts 76°
2026-05-04 17:41 48.12007 16.57527 613 ft 14 kts 104°
2026-05-04 17:41 48.11980 16.57681 609 ft 16 kts 105°
2026-05-04 17:41 48.11926 16.57835 613 ft 19 kts 144°
2026-05-04 17:41 48.11643 16.57960 614 ft 77 kts 164°
2026-05-04 17:42 48.10912 16.58271 617 ft 139 kts 164°
2026-05-04 17:42 48.09907 16.58692 1103 ft 147 kts 163°
2026-05-04 17:42 48.08924 16.59100 1779 ft 147 kts 166°
2026-05-04 17:42 48.07888 16.59529 2131 ft 164 kts 167°
2026-05-04 17:43 48.06731 16.59996 2341 ft 185 kts 169°
2026-05-04 17:43 48.05384 16.59744 2523 ft 211 kts 208°
2026-05-04 17:43 48.04253 16.58197 2768 ft 238 kts 227°
2026-05-04 17:43 48.03241 16.56147 3219 ft 249 kts 232°
2026-05-04 17:44 48.02278 16.53986 3884 ft 250 kts 233°
2026-05-04 17:44 48.01309 16.51823 4537 ft 251 kts 233°
2026-05-04 17:44 48.00316 16.49671 5128 ft 252 kts 233°
2026-05-04 17:44 47.99293 16.47527 5701 ft 256 kts 233°
2026-05-04 17:45 47.98381 16.45221 6246 ft 261 kts 247°
2026-05-04 17:45 47.97952 16.42571 6755 ft 267 kts 264°
2026-05-04 17:45 47.98006 16.39788 7281 ft 270 kts 272°
2026-05-04 17:45 47.98128 16.36981 7812 ft 272 kts 271°
2026-05-04 17:46 47.98240 16.34152 8320 ft 274 kts 271°
2026-05-04 17:46 47.98360 16.31285 8798 ft 279 kts 271°
2026-05-04 17:46 47.98495 16.28393 9315 ft 280 kts 272°
2026-05-04 17:46 47.98635 16.25472 9798 ft 284 kts 272°
2026-05-04 17:47 47.98778 16.22506 10096 ft 293 kts 272°
2026-05-04 17:47 47.98923 16.19384 10246 ft 313 kts 271°
2026-05-04 17:47 47.99076 16.16062 10810 ft 326 kts 272°
2026-05-04 17:47 47.99233 16.12657 11607 ft 331 kts 271°
2026-05-04 17:48 47.99390 16.09212 12466 ft 334 kts 271°
2026-05-04 17:48 47.99547 16.05724 13272 ft 339 kts 271°
2026-05-04 17:48 47.99702 16.02193 14027 ft 343 kts 271°
2026-05-04 17:48 47.99853 15.98618 14743 ft 347 kts 271°
2026-05-04 17:49 48.00004 15.95010 15469 ft 350 kts 271°
2026-05-04 17:49 48.00159 15.91371 16162 ft 353 kts 271°
2026-05-04 17:49 48.00317 15.87697 16890 ft 356 kts 271°
2026-05-04 17:49 48.00475 15.84040 17613 ft 359 kts 271°
2026-05-04 17:50 48.00635 15.80254 18312 ft 363 kts 271°
2026-05-04 17:50 48.00791 15.76525 18894 ft 366 kts 272°
2026-05-04 17:50 48.00947 15.72712 19477 ft 370 kts 272°
2026-05-04 17:50 48.01104 15.68867 20098 ft 372 kts 272°
2026-05-04 17:51 48.01262 15.64988 20708 ft 375 kts 272°
2026-05-04 17:51 48.01420 15.61085 21339 ft 378 kts 272°
2026-05-04 17:51 48.01577 15.57159 21971 ft 381 kts 272°
2026-05-04 17:51 48.01735 15.53206 22609 ft 383 kts 273°
2026-05-04 17:52 48.01893 15.49204 23133 ft 389 kts 273°
2026-05-04 17:52 48.02051 15.45167 23727 ft 390 kts 273°
2026-05-04 17:52 48.02210 15.41113 24226 ft 392 kts 273°
2026-05-04 17:52 48.02369 15.37049 24757 ft 393 kts 273°
2026-05-04 17:53 48.02528 15.32951 25157 ft 397 kts 273°
2026-05-04 17:53 48.02686 15.28816 25572 ft 401 kts 273°
2026-05-04 17:53 48.02839 15.24646 25982 ft 404 kts 273°
2026-05-04 17:53 48.02992 15.20450 26445 ft 405 kts 273°
2026-05-04 17:54 48.03145 15.16243 26934 ft 406 kts 273°
2026-05-04 17:54 48.03299 15.12024 27322 ft 409 kts 273°
2026-05-04 17:54 48.03452 15.07768 27708 ft 412 kts 273°
2026-05-04 17:54 48.03603 15.03468 28049 ft 416 kts 272°
2026-05-04 17:55 48.03751 14.99134 28434 ft 419 kts 272°
2026-05-04 17:55 48.03901 14.94771 28803 ft 422 kts 272°
2026-05-04 17:55 48.04052 14.90378 29183 ft 424 kts 272°
2026-05-04 17:55 48.04203 14.85967 29484 ft 426 kts 272°
2026-05-04 17:56 48.04351 14.81544 29766 ft 427 kts 272°
2026-05-04 17:56 48.04494 14.77106 29887 ft 425 kts 272°
2026-05-04 17:56 48.04635 14.72787 29901 ft 409 kts 272°
2026-05-04 17:56 48.04774 14.68578 29901 ft 403 kts 272°
2026-05-04 17:57 48.05052 14.60059 29897 ft 422 kts 272°
2026-05-04 17:57 48.05328 14.51144 29895 ft 433 kts 272°
2026-05-04 17:58 48.05604 14.42131 29858 ft 435 kts 272°
2026-05-04 17:58 48.05741 14.37615 29570 ft 435 kts 272°
2026-05-04 17:58 48.05877 14.33099 29290 ft 435 kts 272°
2026-05-04 17:59 48.06010 14.28576 29011 ft 436 kts 272°
2026-05-04 17:59 48.06139 14.24046 28736 ft 437 kts 272°
2026-05-04 17:59 48.06392 14.14963 28205 ft 438 kts 271°
2026-05-04 18:00 48.06517 14.10418 27935 ft 438 kts 271°
2026-05-04 18:00 48.06643 14.05869 27675 ft 438 kts 271°
2026-05-04 18:00 48.06766 14.01372 27418 ft 439 kts 271°
2026-05-04 18:00 48.06888 13.96821 27157 ft 438 kts 271°
2026-05-04 18:01 48.07006 13.92272 26900 ft 437 kts 271°
2026-05-04 18:01 48.07122 13.87742 26639 ft 436 kts 271°
2026-05-04 18:01 48.07234 13.83246 25962 ft 431 kts 271°
2026-05-04 18:02 48.07447 13.74383 24566 ft 422 kts 271°
2026-05-04 18:02 48.07549 13.70018 23887 ft 419 kts 271°
2026-05-04 18:02 48.07648 13.65678 23167 ft 416 kts 271°
2026-05-04 18:02 48.07746 13.61378 22494 ft 411 kts 271°
2026-05-04 18:03 48.07841 13.57137 21881 ft 406 kts 271°
2026-05-04 18:03 48.07935 13.52943 21299 ft 401 kts 270°
2026-05-04 18:03 48.08029 13.48800 20727 ft 397 kts 270°
2026-05-04 18:03 48.08119 13.44701 20190 ft 392 kts 270°
2026-05-04 18:04 48.08207 13.40642 19659 ft 389 kts 270°
2026-05-04 18:04 48.08289 13.36626 19148 ft 385 kts 270°
2026-05-04 18:04 48.08449 13.28697 18139 ft 378 kts 270°
2026-05-04 18:05 48.08529 13.24779 17600 ft 375 kts 270°
2026-05-04 18:05 48.08606 13.20911 17096 ft 370 kts 270°
2026-05-04 18:05 48.08680 13.17088 16601 ft 366 kts 269°
2026-05-04 18:05 48.08751 13.13297 16080 ft 363 kts 269°
2026-05-04 18:06 48.08887 13.05814 15045 ft 358 kts 269°
2026-05-04 18:06 48.08952 13.02112 14523 ft 356 kts 269°
2026-05-04 18:06 48.09014 12.98411 13979 ft 355 kts 269°
2026-05-04 18:07 48.09075 12.94727 13399 ft 354 kts 269°
2026-05-04 18:07 48.09174 12.91045 12981 ft 357 kts 273°
2026-05-04 18:07 48.09520 12.87348 12908 ft 359 kts 275°
2026-05-04 18:07 48.09878 12.83647 12918 ft 359 kts 275°
2026-05-04 18:08 48.10230 12.79958 12918 ft 357 kts 274°
2026-05-04 18:08 48.10578 12.76280 12918 ft 357 kts 274°
2026-05-04 18:08 48.10921 12.72602 12918 ft 357 kts 274°
2026-05-04 18:08 48.11295 12.68934 12821 ft 356 kts 278°
2026-05-04 18:09 48.13957 12.62771 11679 ft 365 kts 320°
2026-05-04 18:09 48.18210 12.58651 10505 ft 362 kts 324°
2026-05-04 18:10 48.20315 12.56652 10196 ft 351 kts 324°
2026-05-04 18:10 48.22305 12.54764 10082 ft 336 kts 324°
2026-05-04 18:10 48.24241 12.52934 9939 ft 322 kts 324°
2026-05-04 18:10 48.26095 12.51186 9914 ft 306 kts 324°
2026-05-04 18:11 48.27873 12.49516 9918 ft 300 kts 324°
2026-05-04 18:11 48.29456 12.47557 9874 ft 291 kts 305°
2026-05-04 18:11 48.30419 12.44951 9486 ft 284 kts 291°
2026-05-04 18:11 48.31303 12.42294 9065 ft 285 kts 294°
2026-05-04 18:12 48.31913 12.40553 8792 ft 284 kts 295°
2026-05-04 18:12 48.32826 12.37931 8363 ft 283 kts 295°
2026-05-04 18:12 48.33729 12.35306 7946 ft 282 kts 295°
2026-05-04 18:12 48.34619 12.32686 7541 ft 281 kts 295°
2026-05-04 18:13 48.35497 12.30065 7128 ft 280 kts 295°
2026-05-04 18:13 48.36360 12.27449 6775 ft 277 kts 295°
2026-05-04 18:13 48.37553 12.22301 6501 ft 250 kts 269°
2026-05-04 18:14 48.37407 12.19732 6264 ft 245 kts 262°
2026-05-04 18:14 48.37220 12.17199 6125 ft 243 kts 262°
2026-05-04 18:14 48.37037 12.14690 5855 ft 240 kts 262°
2026-05-04 18:15 48.36674 12.09754 5252 ft 236 kts 262°
2026-05-04 18:15 48.36314 12.04879 4644 ft 233 kts 263°
2026-05-04 18:15 48.36134 12.02459 4325 ft 232 kts 263°
2026-05-04 18:16 48.35955 12.00052 4029 ft 231 kts 263°
2026-05-04 18:16 48.35777 11.97660 3729 ft 229 kts 263°
2026-05-04 18:16 48.35603 11.95343 3438 ft 217 kts 264°
2026-05-04 18:17 48.35286 11.91122 2906 ft 188 kts 264°
2026-05-04 18:17 48.35149 11.89316 2683 ft 167 kts 264°
2026-05-04 18:17 48.34907 11.86116 2266 ft 146 kts 264°
2026-05-04 18:18 48.34794 11.84627 2071 ft 142 kts 265°
2026-05-04 18:18 48.34682 11.83176 1871 ft 139 kts 265°
2026-05-04 18:18 48.34576 11.81752 1706 ft 135 kts 265°
2026-05-04 18:18 48.34472 11.80335 1542 ft 138 kts 265°
2026-05-04 18:19 48.34294 11.78025 1476 ft 68 kts 263°
2026-05-04 18:19 48.34255 11.77507 1485 ft 43 kts 263°
2026-05-04 18:19 48.34275 11.77211 1485 ft 23 kts 288°
2026-05-04 18:20 48.34332 11.77001 1485 ft 15 kts 294°
2026-05-04 18:20 48.34377 11.76843 1485 ft 17 kts 292°
2026-05-04 18:20 48.34395 11.76780 1485 ft 0 kts 292°
2026-05-04 18:21 48.34395 11.76779 1485 ft 1 kts 292°
2026-05-04 18:21 48.34424 11.76728 1470 ft 12 kts 322°
2026-05-04 18:22 48.34510 11.76694 1480 ft 13 kts 353°
2026-05-04 18:22 48.34576 11.76766 1485 ft 14 kts 81°
2026-05-04 18:22 48.34587 11.76913 1485 ft 14 kts 83°
2026-05-04 18:22 48.34599 11.77056 1485 ft 14 kts 83°
2026-05-04 18:23 48.34609 11.77192 1485 ft 13 kts 83°
2026-05-04 18:23 48.34619 11.77323 1485 ft 12 kts 83°
2026-05-04 18:23 48.34629 11.77459 1485 ft 16 kts 83°
2026-05-04 18:23 48.34644 11.77651 1483 ft 21 kts 83°
2026-05-04 18:24 48.34664 11.77883 1485 ft 23 kts 83°
2026-05-04 18:24 48.34682 11.78137 1473 ft 26 kts 84°
2026-05-04 18:24 48.34703 11.78414 1481 ft 28 kts 83°
2026-05-04 18:24 48.34726 11.78704 1476 ft 29 kts 84°
2026-05-04 18:25 48.34749 11.79017 1485 ft 31 kts 83°
2026-05-04 18:25 48.34770 11.79285 1485 ft 22 kts 83°
2026-05-04 18:25 48.34784 11.79471 1473 ft 11 kts 83°
2026-05-04 18:25 48.34817 11.79560 1476 ft 9 kts 25°
2026-05-04 18:26 48.34876 11.79555 1475 ft 8 kts 353°
2026-05-04 18:26 48.34895 11.79551 1486 ft 0 kts 353°
2026-05-04 18:27 48.34904 11.79549 1478 ft 5 kts 353°
2026-05-04 18:27 48.34965 11.79553 1485 ft 13 kts 21°
2026-05-04 18:28 48.35073 11.79588 1485 ft 19 kts 351°
2026-05-04 18:28 48.35210 11.79564 1482 ft 21 kts 354°
2026-05-04 18:28 48.35363 11.79538 1477 ft 23 kts 353°
2026-05-04 18:28 48.35524 11.79509 1474 ft 22 kts 354°
2026-05-04 18:29 48.35680 11.79484 1485 ft 22 kts 353°
2026-05-04 18:29 48.35773 11.79485 1478 ft 10 kts 25°
2026-05-04 18:29 48.35796 11.79567 1485 ft 8 kts 84°
2026-05-04 18:29 48.35804 11.79666 1470 ft 11 kts 83°
2026-05-04 18:30 48.35825 11.79940 1478 ft 14 kts 83°
2026-05-04 18:30 48.35798 11.80059 1485 ft 12 kts 154°
2026-05-04 18:30 48.35718 11.80077 1485 ft 11 kts 173°
2026-05-04 18:31 48.35647 11.80099 1479 ft 10 kts 173°
2026-05-04 18:31 48.35583 11.80110 1485 ft 9 kts 174°
2026-05-04 18:31 48.35527 11.80120 1477 ft 8 kts 173°
2026-05-04 18:31 48.35478 11.80118 1477 ft 6 kts 212°
2026-05-04 18:32 48.35469 11.80064 1485 ft 5 kts 266°
2026-05-04 18:32 48.35465 11.80018 1485 ft 4 kts 263°